Location: Platte
(43.3870°N, 98.8440°W)
Time: 15:38:52
(UTC-05:00)

Daily predictions for brighter satellites

Satellite Brightness Start Highest point End
(mag) Time Altitude Azimuth Time Altitude Azimuth Time Altitude Azimuth
Iridium 4 Rocket 3.8 21:29:23 10° N 21:34:19 75° W 21:39:42 10° S
Cosmos 1709 Rocket 4.3 21:30:15 10° N 21:36:32 75° W 21:42:43 10° S
Envisat 3.1 21:32:01 10° SSE 21:37:06 88° ENE 21:42:13 10° NNW
Spot 1 4.2 21:33:33 10° SSE 21:38:08 84° ENE 21:42:29 10° NNW
ASTEX 1 4.1 21:37:32 10° SE 21:42:03 38° ENE 21:46:33 10° N
Tiangong 2 2.7 21:40:42 10° SSW 21:42:53 17° SSE 21:45:03 10° ESE
Aureole 3 Rocket 3.9 21:43:34 10° S 21:50:05 54° E 21:54:46 10° NNE
USA 186 4.0 21:52:03 10° SSW 21:54:45 24° W 21:57:25 10° NW
Aureole 1 Rocket 3.2 21:52:38 10° SSE 21:55:36 28° ESE 21:58:15 10° NE
ISS -2.3 21:53:30 10° S 21:55:50 18° SE 21:58:11 10° E
Cosmos 1666 2.9 21:54:46 10° N 21:58:27 52° E 22:01:55 11° SSE
DNEPR-1 R/B 3.8 21:56:35 10° NNW 22:00:47 59° NE 22:04:37 14° SE
NOSS 2-2 (E) 3.5 21:57:23 10° SW 22:01:25 87° SE 22:06:11 10° NE
Meteor 2-4 Rocket 4.0 21:57:23 10° SSE 22:02:47 52° E 22:08:23 10° NNE
DEBRIS 3.7 22:02:11 10° SW 22:05:36 70° SE 22:17:07 10° ENE
OAO 2 Rocket 4.2 22:02:15 10° SW 22:06:30 29° S 22:10:00 14° ESE
CZ-4B DEB 3.8 22:05:07 10° S 22:07:56 40° W 22:10:48 10° NNW
Cosmos 1437 3.6 22:05:13 10° SSW 22:08:21 53° WNW 22:11:33 10° N
Cosmos 923 Rocket 4.0 22:03:11 10° SSW 22:08:31 83° ESE 22:13:51 10° NNE
Meteor 2-13 Rocket 4.4 22:03:28 10° N 22:09:34 83° E 22:15:38 10° S
Cosmos 1536 Rocket 4.2 22:06:15 10° SSW 22:10:31 58° W 22:14:48 10° N
Helios 1A 4.4 22:08:31 10° SSW 22:12:26 37° W 22:16:22 10° NNW
Meteor 1-29 3.9 22:09:56 10° N 22:13:12 49° WNW 22:16:28 10° SSW
Lacrosse 5 rocket 4.4 22:10:46 10° NW 22:13:39 16° N 22:16:34 10° NNE
Cosmos 2184 Rocket 4.1 22:10:24 10° N 22:16:48 87° W 22:23:06 10° S
Cosmos 2074 Rocket 4.1 22:10:39 10° N 22:16:55 83° W 22:23:11 10° S
USA 245 3.5 22:16:10 20° ESE 22:17:15 27° ENE 22:19:25 10° NNE
YAOGAN 6 3.2 22:16:47 10° S 22:20:12 53° W 22:23:39 10° NNW
YAOGAN 11 4.2 22:18:33 17° SSE 22:21:46 58° ENE 22:26:01 10° N
Meteor 1-19 Rocket 4.5 22:18:31 10° SSW 22:24:20 76° W 22:30:06 10° N
Cosmos 1656 Rocket 4.2 22:20:51 10° NNW 22:26:09 54° WSW 22:31:14 11° S
ERS-1 Rocket 3.1 22:21:29 11° S 22:26:23 75° WSW 22:31:26 10° NNW
Cosmos 1726 Rocket 4.4 22:23:21 10° N 22:27:17 33° ENE 22:29:29 21° SE
GENESIS II 4.2 22:23:40 10° NW 22:27:40 88° ENE 22:30:03 23° SE
Cosmos 405 Rocket 3.5 22:24:05 10° SSW 22:27:44 51° WNW 22:31:29 10° N
MetOp-A 4.1 22:26:30 14° SSE 22:31:08 90° ESE 22:36:33 10° NNW
Meteor 1-23 Rocket 4.2 22:26:37 10° S 22:32:08 71° E 22:37:44 10° NNE
Cosmos 2058 Rocket 4.2 22:30:00 10° NNE 22:33:52 30° ENE 22:35:51 21° ESE
USA 267 4.5 22:29:53 10° E 22:34:00 17° ESE 22:34:03 17° ESE
Intercosmos 24 3.7 22:31:34 10° N 22:35:42 76° E 22:37:49 23° SSE
H-2A R/B 2.4 22:33:29 21° SE 22:36:31 47° ENE 22:41:19 10° N
Cosmos 1980 Rocket 4.4 22:34:55 10° N 22:37:59 15° NE 22:41:02 10° ENE
Cosmos 1025 Rocket 2.9 22:35:24 13° S 22:39:10 80° E 22:43:27 10° N
Meteor 1-15 Rocket 4.2 22:34:22 10° N 22:40:00 76° E 22:43:56 20° SSE
Cosmos 1441 Rocket 3.3 22:36:38 10° SSW 22:40:21 71° W 22:44:06 10° N
Cosmos 192 4.3 22:35:43 10° SSW 22:40:37 87° ESE 22:45:34 10° NNE
Cosmos 2112 Rocket 4.1 22:36:08 10° SSW 22:41:21 78° WNW 22:46:35 10° NNE
MOS 1-B Rocket 4.0 22:36:34 15° SSE 22:41:22 82° WSW 22:47:44 10° NNW
Cosmos 1943 Rocket 4.5 22:38:17 10° WNW 22:41:53 18° W 22:45:28 10° SW
PSLV R/B 3.3 22:39:12 10° W 22:42:15 50° S 22:43:04 38° SE
Cosmos 1624 Rocket 4.1 22:42:59 10° NNW 22:48:16 69° ENE 22:51:17 26° SE
CENTAUR R/B 3.8 22:42:14 10° NW 22:49:48 48° WSW 22:56:31 15° S
SL-27 R/B 3.2 22:49:12 10° SSW 22:52:47 56° WNW 22:56:25 10° N
Nadezhda 1 Rocket 4.4 22:46:51 10° SSW 22:53:08 65° W 22:59:32 10° N
SL-08 RB Rocket 3.6 22:52:50 25° SSE 22:55:25 86° WSW 22:59:55 10° NNW
ARGOS 3.3 22:55:04 20° S 22:58:54 70° WSW 23:04:20 10° NNW
COSMOS 2406 4.2 22:54:17 10° SW 22:59:49 48° WNW 23:05:21 10° NNE
Cosmos 2154 Rocket 4.2 22:54:04 10° N 23:00:25 75° W 23:05:15 18° S
Nimbus 7 Rocket 4.4 22:55:01 10° NNE 23:01:07 80° ESE 23:06:25 14° SSW
Landsat 7 3.9 23:00:33 31° SE 23:02:44 63° ENE 23:07:28 10° N
H-2A R/B 2.8 23:01:56 30° ESE 23:03:38 43° ENE 23:07:56 10° N
SL-8 Rocket 4.2 22:58:21 10° N 23:04:30 56° ENE 23:07:42 28° SE
SPOT 5 3.1 23:02:19 23° S 23:04:51 55° W 23:09:08 10° NNW
Cosmos 405 4.5 23:03:45 10° NNW 23:06:59 33° W 23:08:58 18° SSW
Cosmos 2056 Rocket 3.4 23:01:49 10° NNW 23:07:02 89° WSW 23:09:30 32° SSE
Cosmos 2278 3.9 23:02:14 10° NNW 23:07:55 63° ENE 23:10:40 31° SE
Cosmos 2366 rocket 4.5 23:02:38 10° N 23:08:31 44° ENE 23:11:14 28° SE
Cosmos 2082 Rocket 2.8 23:09:49 31° SE 23:11:21 36° ESE 23:16:29 10° NE
Iridium 82 4.4 23:09:55 10° N 23:13:28 74° E 23:14:11 53° SSE
Cosmos 1626 Rocket 4.4 23:14:23 31° ESE 23:14:48 31° E 23:18:38 10° NNE
Terra 1.9 23:16:04 37° SE 23:17:48 62° ENE 23:22:30 10° N
CZ-4B R/B 4.3 23:13:46 10° NNE 23:18:18 32° E 23:19:05 31° ESE
Tiangong 2 2.4 23:16:06 10° WSW 23:17:54 29° SW 23:17:54 29° SW
COSMOS 2487 2.6 23:21:12 53° E 23:21:12 53° E 23:24:36 10° NNE
Cosmos 1437 Rocket 3.8 23:19:45 10° NNW 23:23:20 39° W 23:24:52 27° SW
Cosmos 2369 3.7 23:20:47 10° NNW 23:26:34 86° ENE 23:28:55 38° SSE
SPOT 1/Viking Rocket 4.1 23:24:55 26° SSW 23:27:41 52° W 23:32:44 10° NNW
Cosmos 2341 Rocket 4.4 23:22:21 10° NNW 23:28:35 62° W 23:32:34 23° SSW
Cosmos 967 Rocket 4.4 23:23:51 10° SSW 23:30:08 87° ESE 23:36:27 10° NNE
ISS -3.4 23:28:46 10° WSW 23:32:03 62° NNW 23:35:19 10° NE
IGS 5A 3.3 23:33:12 55° SSE 23:34:03 86° E 23:38:15 10° NNW
Cosmos 1959 Rocket 4.5 23:28:57 10° N 23:35:21 79° E 23:38:07 36° SSE
SL-08 R/B 4.4 23:29:32 10° N 23:35:39 70° E 23:38:03 38° SSE
SL-16 R/B 4.5 23:32:42 10° N 23:35:56 15° NE 23:39:10 10° E
Cosmos 1697 Rocket 3.0 23:30:35 10° NNW 23:36:06 54° ENE 23:38:09 35° ESE
Cosmos 839 Rocket 4.4 23:31:19 10° NW 23:37:50 72° WSW 23:41:32 33° SSE
Cosmos 1452 Rocket 3.5 23:34:01 10° NNW 23:39:19 74° ENE 23:40:54 45° SE
Cosmos 1271 Rocket 4.0 23:37:22 10° NNE 23:40:46 29° ENE 23:40:49 29° ENE
Cosmos 1892 Rocket 4.5 23:38:45 22° SW 23:41:17 45° WNW 23:45:33 10° N
Cosmos 2228 3.3 23:38:25 10° NNW 23:42:40 58° W 23:43:46 43° SSW
Cosmos 2218 Rocket 3.9 23:38:43 10° N 23:44:53 88° W 23:47:26 38° S
deb Chang Zheng 4 3.4 23:43:32 10° NNE 23:47:53 89° WNW 23:48:47 56° SSW
Cosmos 1602 Rocket 3.4 23:47:45 64° SE 23:48:13 71° E 23:52:33 10° NNE
Cosmos 921 Rocket 3.7 23:44:20 10° NNW 23:48:38 46° WSW 23:49:41 38° SW
NOSS 8 (E) 4.5 23:48:43 76° W 23:48:53 80° NW 23:52:42 10° NE
Lacrosse 5 rocket 4.3 23:51:27 10° NNW 23:54:31 17° NNE 23:57:34 10° NE
